Tracking 29068 objects as of 19-Jul-2024
HD Live streaming from Space Station
objects crossing your sky now

STARLINK-30455

Track STARLINK-30455 now!
10-day predictions
STARLINK-30455 is classified as:


NORAD ID: 57942
Int'l Code: 2023-148H
Perigee: 487.9 km
Apogee: 489.8 km
Inclination: 53.2 °
Period: 94.2 minutes
Semi major axis: 6859 km
RCS: Unknown
Launch date: September 25, 2023
Source: United States (US)
Launch site: AIR FORCE WESTERN TEST RANGE (AFWTR)
Your satellite tracking list
Your tracking list is empty




NASA's NSSDC Master Catalog

Two Line Element Set (TLE):
1 57942U 23148H   24200.52925568 -.00000226  00000-0  45056-5 0  9991
2 57942  53.1799 287.4005 0001353  72.8922 287.2227 15.28018941 46684
Source of the keplerian elements: AFSPC